When you browse on this site, cookies collect data to enhance your experience and personalize the content and advertising you see.
Visit our Privacy Policy to learn more. By continuing to use the site, you agree to this use of cookies and data.

Stündliche Wetter Martishki

Heute, 20 September, Sonntag

Zeit Temperatur Niederschläge Wind Luftdruck Luftfeuchtigkeit
00:00 +6°C° 0 mm 2 m/S 750 mmHg 92%
01:00 +6°C° 0 mm 2 m/S 750 mmHg 93%
02:00 +5°C° 0 mm 2 m/S 750 mmHg 96%
03:00 +5°C° 0 mm 2 m/S 750 mmHg 96%
04:00 +5°C° 0 mm 2 m/S 751 mmHg 96%
05:00 +5°C° 0 mm 2 m/S 751 mmHg 96%
06:00 +6°C° 0 mm 2 m/S 751 mmHg 93%
07:00 +7°C° 0 mm 2 m/S 752 mmHg 89%
08:00 +8°C° 0 mm 3 m/S 752 mmHg 85%
09:00 +10°C° 0 mm 3 m/S 752 mmHg 77%
10:00 +11°C° 0 mm 3 m/S 752 mmHg 69%
11:00 +13°C° 0 mm 3 m/S 752 mmHg 62%
12:00 +13°C° 0 mm 3 m/S 752 mmHg 61%
13:00 +13°C° 0 mm 3 m/S 752 mmHg 60%
14:00 +14°C° 0 mm 3 m/S 752 mmHg 59%
15:00 +14°C° 0 mm 2 m/S 752 mmHg 64%
16:00 +13°C° 0 mm 2 m/S 752 mmHg 69%
17:00 +13°C° 0 mm 2 m/S 751 mmHg 75%
18:00 +10°C° 0 mm 2 m/S 751 mmHg 79%
19:00 +9°C° 0 mm 2 m/S 751 mmHg 83%
20:00 +7°C° 0 mm 2 m/S 751 mmHg 87%
21:00 +7°C° 0 mm 2 m/S 751 mmHg 89%
22:00 +7°C° 0 mm 2 m/S 751 mmHg 90%
23:00 +6°C° 0 mm 2 m/S 751 mmHg 92%

Morgen, 21 September, Montag

Zeit Temperatur Niederschläge Wind Luftdruck Luftfeuchtigkeit
00:00 +6°C° 0 mm 2 m/S 751 mmHg 92%
01:00 +6°C° 0 mm 2 m/S 751 mmHg 92%
02:00 +6°C° 0 mm 2 m/S 751 mmHg 92%
03:00 +6°C° 0 mm 2 m/S 751 mmHg 93%
04:00 +6°C° 0 mm 2 m/S 751 mmHg 93%
05:00 +5°C° 0 mm 2 m/S 750 mmHg 94%
06:00 +7°C° 0 mm 3 m/S 750 mmHg 89%
07:00 +8°C° 0 mm 3 m/S 750 mmHg 85%
08:00 +9°C° 0 mm 3 m/S 750 mmHg 81%
09:00 +10°C° 0 mm 4 m/S 750 mmHg 77%
10:00 +12°C° 0 mm 4 m/S 750 mmHg 73%
11:00 +14°C° 0 mm 4 m/S 750 mmHg 69%
12:00 +15°C° 0 mm 4 m/S 750 mmHg 68%
13:00 +17°C° 0 mm 4 m/S 750 mmHg 67%
14:00 +18°C° 0 mm 4 m/S 750 mmHg 67%
15:00 +17°C° 0 mm 4 m/S 750 mmHg 72%
16:00 +17°C° 0 mm 3 m/S 749 mmHg 77%
17:00 +16°C° 0 mm 3 m/S 749 mmHg 82%
18:00 +14°C° 0 mm 3 m/S 749 mmHg 86%
19:00 +13°C° 0 mm 3 m/S 749 mmHg 89%
20:00 +12°C° 0 mm 3 m/S 749 mmHg 93%
21:00 +12°C° 0 mm 3 m/S 749 mmHg 93%
22:00 +12°C° 0 mm 3 m/S 749 mmHg 93%
23:00 +12°C° 0 mm 3 m/S 749 mmHg 92%

übermorgen, 22 September, Dienstag

Zeit Temperatur Niederschläge Wind Luftdruck Luftfeuchtigkeit
00:00 +11°C° 0 mm 3 m/S 748 mmHg 92%
01:00 +11°C° 0 mm 4 m/S 748 mmHg 92%
02:00 +11°C° 0 mm 4 m/S 748 mmHg 92%
03:00 +11°C° 0 mm 4 m/S 748 mmHg 92%
04:00 +10°C° 0 mm 4 m/S 748 mmHg 93%
05:00 +10°C° 0 mm 4 m/S 747 mmHg 93%
06:00 +11°C° 0 mm 4 m/S 748 mmHg 89%
07:00 +12°C° 0 mm 4 m/S 748 mmHg 84%
08:00 +12°C° 0 mm 4 m/S 748 mmHg 80%
09:00 +14°C° 0 mm 4 m/S 748 mmHg 75%
10:00 +17°C° 0 mm 4 m/S 748 mmHg 69%
11:00 +19°C° 0 mm 5 m/S 748 mmHg 63%
12:00 +19°C° 0 mm 4 m/S 748 mmHg 62%
13:00 +20°C° 0 mm 4 m/S 748 mmHg 61%
14:00 +21°C° 0 mm 4 m/S 747 mmHg 61%
15:00 +20°C° 0 mm 4 m/S 747 mmHg 67%
16:00 +19°C° 0 mm 3 m/S 747 mmHg 73%
17:00 +18°C° 0 mm 2 m/S 747 mmHg 79%
18:00 +16°C° 0 mm 2 m/S 747 mmHg 84%
19:00 +15°C° 0 mm 2 m/S 747 mmHg 88%
20:00 +14°C° 0 mm 2 m/S 747 mmHg 93%
21:00 +14°C° 0 mm 2 m/S 747 mmHg 93%
22:00 +13°C° 0 mm 2 m/S 747 mmHg 94%
23:00 +13°C° 0 mm 2 m/S 747 mmHg 94%

23 September, Mittwoch

Zeit Temperatur Niederschläge Wind Luftdruck Luftfeuchtigkeit
00:00 +13°C° 0 mm 2 m/S 747 mmHg 94%
01:00 +12°C° 0 mm 2 m/S 747 mmHg 94%
02:00 +12°C° 0 mm 2 m/S 747 mmHg 95%
03:00 +12°C° 0 mm 2 m/S 747 mmHg 95%
04:00 +12°C° 0 mm 2 m/S 747 mmHg 95%
05:00 +10°C° 0 mm 2 m/S 747 mmHg 95%
06:00 +13°C° 0 mm 2 m/S 747 mmHg 91%
07:00 +14°C° 0 mm 2 m/S 747 mmHg 86%
08:00 +14°C° 0 mm 3 m/S 747 mmHg 82%
09:00 +16°C° 0 mm 3 m/S 747 mmHg 76%
10:00 +18°C° 0 mm 3 m/S 747 mmHg 69%
11:00 +20°C° 0 mm 4 m/S 747 mmHg 63%
12:00 +20°C° 0 mm 4 m/S 747 mmHg 59%
13:00 +21°C° 0 mm 4 m/S 747 mmHg 56%
14:00 +22°C° 0 mm 4 m/S 747 mmHg 52%
15:00 +20°C° 0 mm 3 m/S 747 mmHg 58%
16:00 +19°C° 0 mm 3 m/S 746 mmHg 65%
17:00 +18°C° 0 mm 3 m/S 746 mmHg 71%
18:00 +16°C° 0 mm 3 m/S 746 mmHg 73%
19:00 +14°C° 0 mm 3 m/S 746 mmHg 75%
20:00 +13°C° 0 mm 3 m/S 746 mmHg 77%
21:00 +12°C° 0 mm 3 m/S 746 mmHg 75%
22:00 +12°C° 0 mm 3 m/S 746 mmHg 74%
23:00 +12°C° 0 mm 3 m/S 746 mmHg 72%

24 September, Donnerstag

Zeit Temperatur Niederschläge Wind Luftdruck Luftfeuchtigkeit
00:00 +11°C° 0 mm 3 m/S 746 mmHg 72%
01:00 +11°C° 0 mm 3 m/S 746 mmHg 72%
02:00 +11°C° 0 mm 3 m/S 746 mmHg 71%
03:00 +10°C° 0 mm 3 m/S 746 mmHg 70%
04:00 +10°C° 0 mm 3 m/S 746 mmHg 70%
05:00 +10°C° 0 mm 3 m/S 746 mmHg 69%
06:00 +11°C° 0 mm 3 m/S 746 mmHg 67%
07:00 +12°C° 0 mm 3 m/S 746 mmHg 65%
08:00 +12°C° 0 mm 4 m/S 746 mmHg 63%
09:00 +14°C° 0 mm 4 m/S 746 mmHg 60%
10:00 +17°C° 0 mm 4 m/S 746 mmHg 57%
11:00 +18°C° 0 mm 4 m/S 746 mmHg 55%
12:00 +19°C° 0 mm 4 m/S 746 mmHg 55%
13:00 +19°C° 0 mm 4 m/S 746 mmHg 55%
14:00 +20°C° 0 mm 4 m/S 746 mmHg 56%
15:00 +19°C° 0 mm 4 m/S 746 mmHg 61%
16:00 +18°C° 0 mm 3 m/S 746 mmHg 66%
17:00 +17°C° 0 mm 3 m/S 746 mmHg 72%
18:00 +16°C° 0 mm 3 m/S 746 mmHg 73%
19:00 +14°C° 0 mm 3 m/S 746 mmHg 75%
20:00 +13°C° 0 mm 3 m/S 746 mmHg 76%
21:00 +13°C° 0 mm 3 m/S 746 mmHg 77%
22:00 +12°C° 0 mm 3 m/S 746 mmHg 78%
23:00 +12°C° 0 mm 3 m/S 746 mmHg 79%

25 September, Freitag

Zeit Temperatur Niederschläge Wind Luftdruck Luftfeuchtigkeit
00:00 +12°C° 0 mm 3 m/S 746 mmHg 79%
01:00 +12°C° 0 mm 3 m/S 746 mmHg 78%
02:00 +12°C° 0 mm 3 m/S 746 mmHg 78%
03:00 +11°C° 0 mm 3 m/S 746 mmHg 77%
04:00 +11°C° 0 mm 3 m/S 746 mmHg 75%
05:00 +11°C° 0 mm 3 m/S 746 mmHg 74%
06:00 +12°C° 0 mm 3 m/S 746 mmHg 71%
07:00 +13°C° 0 mm 3 m/S 746 mmHg 68%
08:00 +13°C° 0 mm 3 m/S 746 mmHg 65%
09:00 +16°C° 0 mm 3 m/S 746 mmHg 62%
10:00 +18°C° 0 mm 4 m/S 746 mmHg 59%
11:00 +19°C° 0 mm 4 m/S 746 mmHg 56%
12:00 +20°C° 0 mm 4 m/S 745 mmHg 55%
13:00 +21°C° 0 mm 4 m/S 745 mmHg 55%
14:00 +22°C° 0 mm 4 m/S 745 mmHg 54%
15:00 +20°C° 0 mm 4 m/S 745 mmHg 59%
16:00 +19°C° 0 mm 3 m/S 745 mmHg 64%
17:00 +18°C° 0 mm 3 m/S 744 mmHg 70%
18:00 +17°C° 0 mm 3 m/S 744 mmHg 72%
19:00 +16°C° 0 mm 3 m/S 744 mmHg 73%
20:00 +15°C° 0 mm 4 m/S 744 mmHg 75%
21:00 +14°C° 0 mm 4 m/S 744 mmHg 75%
22:00 +14°C° 0 mm 3 m/S 744 mmHg 75%
23:00 +13°C° 0 mm 3 m/S 744 mmHg 76%
Mehr zeigen